Flag for Germany Weather for the Past 2 Weeks in Pfaffenhofen an der Ilm, Bavaria, Germany

Now
43 °F

Passing clouds.


Feels Like: 41 °F
Forecast: 40 / 54 °F
Wind: 3 mph from Southwest

Location: Ingolstadt Airport

Current Time: May 3, 2016 at 7:50:25 AM

Latest Report: May 3, 2016 at 6:20 AM


Visibility: N/A

Pressure: 30.07 "Hg

Humidity: 87%

Dew Point: 39 °F

Location of Pfaffenhofen an der IlmLocation

Historic Weather in Pfaffenhofen an der Ilm — Graph

°F

Pfaffenhofen an der Ilm Temperature Yesterday

Maximum temperature yesterday: 64 °F (at 3:20 PM)
Minimum temperature yesterday: 45 °F (at 5:20 AM)
Average temperature yesterday: 55 °F

High & Low Weather Summary for the Past Weeks

 TemperatureHumidityPressure
High66 °F (Apr 22, 3:20 PM)100% (Apr 25, 4:20 AM)30.39 "Hg (Apr 25, 4:20 AM)
Low28 °F (Apr 28, 5:20 AM)26% (Apr 30, 6:20 PM)29.56 "Hg (Apr 26, 9:20 AM)
Average46 °F67%29.99 "Hg
* Reported Apr 18 6:20 AM — May 3 6:20 AM, Pfaffenhofen an der Ilm, Weather by CustomWeather, © 2016

Note: Actual official high and low records may vary slightly from our data, if they occured in-between our weather recording intervals... More about our weather records

Advertising

Pfaffenhofen an der Ilm Weather History for the Previous 24 Hours

Scroll right to see more
 ConditionsComfort  
Time TempWeatherWind HumidityBarometerVisibility
6:20 AM
Tue, May 3
43 °FPassing clouds.3 mph87%30.07 "HgN/A
5:20 AM39 °FPassing clouds.2 mph87%30.07 "HgN/A
4:20 AM41 °FQuite cool.1 mph87%30.07 "Hg5 mi
3:20 AM41 °FQuite cool.2 mph87%30.07 "Hg3 mi
2:20 AM43 °FQuite cool.2 mph87%30.07 "HgN/A
1:20 AM43 °FQuite cool.No wind81%30.07 "Hg6 mi
12:20 AM46 °FCool.1 mph76%30.07 "Hg6 mi
11:20 PM
Mon, May 2
48 °FCool.2 mph71%30.07 "Hg6 mi
10:20 PM50 °FPassing clouds.2 mph71%30.07 "HgN/A
9:20 PM52 °FPassing clouds.1 mph67%30.07 "HgN/A
8:20 PM57 °FPassing clouds.3 mph51%30.07 "HgN/A
7:20 PM61 °FPassing clouds.3 mph45%30.07 "HgN/A
6:20 PM64 °FPassing clouds.3 mph32%30.07 "HgN/A
5:20 PM64 °FPassing clouds.6 mph37%30.09 "HgN/A
5:00 PM64 °FPassing clouds.8 mph34%30.09 "HgN/A
4:20 PM64 °FPassing clouds.3 mph37%30.09 "HgN/A
3:20 PM64 °FPassing clouds.6 mph32%30.12 "HgN/A
2:20 PM63 °FScattered clouds.3 mph37%30.12 "HgN/A
1:20 PM61 °FScattered clouds.6 mph45%30.12 "HgN/A
12:20 PM59 °FScattered clouds.3 mph51%30.15 "HgN/A
11:20 AM57 °FPassing clouds.9 mph51%30.15 "HgN/A
10:20 AM55 °FScattered clouds.10 mph55%30.18 "HgN/A
9:20 AM54 °FScattered clouds.13 mph58%30.18 "HgN/A
8:20 AM50 °FScattered clouds.12 mph67%30.18 "HgN/A
Weather by CustomWeather, © 2016

See weather overviewHow to use our weather pages